Probability
31 28 24 17 7 4 4 4 3 2 1 0 0 0 0 1 1 1 0 1 3 4 6 6 6 6 7 7 6 6 7 7 5 4 2 1 0 1 0 0 0 0 0
36 32 25 17 9 7 8 7 5 3 1 1 1 0 0 0 0 0 1 3 5 6 7 8 8 7 6 6 7 7 8 9 7 4 2 1 1 2 1 0 0 0 0
44 39 30 21 16 16 18 16 12 8 5 4 3 3 2 3 3 3 4 6 7 8 8 9 9 8 7 7 7 6 7 8 7 5 3 3 3 3 3 2 1 1 1
50 48 40 31 27 29 28 25 20 16 13 9 8 7 7 7 7 7 8 8 9 9 8 8 8 8 9 9 7 5 5 7 8 7 5 4 4 4 5 3 2 2 2
52 51 47 39 36 36 32 28 27 25 19 13 9 9 9 9 9 9 9 10 9 8 7 6 5 6 8 8 6 5 5 6 7 6 5 4 4 5 5 3 2 2 1
52 53 50 44 41 39 35 32 32 29 21 14 9 9 9 8 8 9 10 10 8 5 4 3 2 3 4 4 3 3 4 5 5 5 5 5 5 5 4 2 2 1 0
49 50 49 47 45 43 40 35 32 27 20 16 15 13 11 9 9 9 9 7 5 3 2 1 1 1 1 1 1 1 1 2 3 4 5 5 5 3 2 1 1 1 0
41 40 40 41 41 39 36 31 28 25 21 18 19 18 13 10 8 5 4 3 2 2 2 1 0 0 0 0 0 0 0 0 1 2 3 3 3 1 0 0 1 1 1
26 26 28 30 29 26 24 23 23 23 21 18 17 16 13 9 6 3 1 1 1 2 2 1 0 0 0 0 0 0 0 0 0 0 1 1 1 0 0 0 0 0 0
13 13 15 17 17 15 14 14 15 16 17 16 13 12 10 7 5 4 1 0 0 1 1 0 0 0 0 0 0 0 0 0 0 0 0 0 0 0 0 0 0 0 0
7 6 6 8 9 9 8 8 8 9 11 11 9 8 7 5 4 3 2 1 0 0 0 0 0 0 0 0 0 0 0 0 0 0 0 0 0 0 0 0 0 0 0
6 5 5 6 6 6 6 6 6 6 7 6 4 4 4 4 2 1 1 1 0 0 0 0 0 0 0 0 0 0 0 0 0 0 0 0 0 0 0 0 0 0 0
6 5 4 5 5 5 4 4 3 3 3 2 1 1 2 2 1 0 0 0 0 0 0 0 0 0 0 0 0 0 0 0 0 0 0 0 0 0 0 0 0 0 0
4 3 2 2 2 2 1 1 1 1 1 0 0 0 0 0 0 0 0 0 0 0 0 0 0 0 0 0 0 0 0 0 0 0 0 0 0 0 0 0 0 0 0
1 1 0 0 0 0 0 0 0 0 0 0 0 0 0 0 0 0 0 0 0 0 0 0 0 0 0 0 0 0 0 0 0 0 0 0 0 0 0 0 0 0 0
0 0 0 0 0 0 0 0 0 0 0 0 0 0 0 0 0 0 0 0 0 0 0 0 0 0 0 0 0 0 0 0 0 0 0 0 0 0 0 0 0 0 0
0 0 0 0 0 0 0 0 0 0 0 0 0 0 0 0 0 0 0 0 0 0 0 0 0 0 0 0 0 0 0 0 0 0 0 0 0 0 0 0 0 0 0
0 0 0 0 0 0 0 0 0 0 0 0 0 0 0 0 0 0 0 0 0 0 0 0 0 0 0 0 0 0 0 0 0 0 0 0 0 0 0 0 0 0 0
0 0 0 0 0 0 0 0 0 0 0 0 0 0 0 0 0 0 0 0 0 0 0 0 0 0 0 0 0 0 0 0 0 0 0 0 0 0 0 0 0 0 0
0 0 0 0 0 0 0 0 0 0 0 0 0 0 0 0 0 0 0 0 0 0 0 0 0 0 0 0 0 0 0 0 0 0 0 0 0 0 0 0 0 0 0
0 0 0 0 0 0 0 0 0 0 0 0 0 0 0 0 0 0 0 0 0 0 0 0 0 0 0 0 0 0 0 0 0 0 0 0 0 0 0 0 0 0 0
0 0 0 0 0 0 0 0 0 0 0 0 0 0 0 0 0 0 0 0 0 0 0 0 0 0 0 0 0 0 0 0 0 0 0 0 0 0 0 0 0 0 0
0 0 0 0 0 0 0 0 0 0 0 0 0 0 0 0 0 0 0 0 0 0 0 0 0 0 0 0 0 0 0 0 0 0 0 0 0 0 0 0 0 0 0
0 0 0 0 0 0 0 0 0 0 0 0 0 0 0 0 0 0 0 0 0 0 0 0 0 0 0 0 0 0 0 0 0 0 0 0 0 0 0 0 0 0 0
0 0 0 0 0 0 0 0 0 0 0 0 0 0 0 0 0 0 0 0 0 0 0 0 0 0 0 0 0 0 0 0 0 0 0 0 0 0 0 0 0 0 0
0 0 0 0 0 0 0 0 0 0 0 0 0 0 0 0 0 0 0 0 0 0 0 0 0 0 0 0 0 0 0 0 0 0 0 0 0 0 0 0 0 0 0
Wind_Speed
7 6 5 4 5 4 5 5 4 3 4 5 4 4 4 4 4 4 1 6 3 4 6 8 9 11 11 11 12 12 12 12 12 11 10 10 10 10 10 10 10 10 10
6 6 6 5 4 4 3 3 3 4 4 2 2 2 4 3 2 3 3 2 4 1 2 3 5 7 8 9 10 10 10 9 9 8 8 8 8 8 8 8 9 9 9
7 6 6 5 5 4 4 4 4 3 3 3 2 2 1 2 2 2 3 3 2 5 6 5 4 3 3 5 7 8 9 8 8 8 8 8 8 8 7 7 8 8 8
7 6 5 5 4 4 3 3 3 3 2 2 1 0 1 1 2 3 3 4 4 4 6 9 9 8 6 2 0 2 4 5 5 6 6 7 7 7 7 7 7 7 7
6 6 4 3 4 3 3 3 3 2 2 1 1 1 2 2 3 4 5 5 6 5 5 8 11 12 12 10 8 6 4 2 1 0 1 2 4 4 4 4 5 5 5
5 4 3 4 3 3 3 2 2 2 1 1 1 2 2 3 3 4 4 5 5 6 6 6 6 8 14 14 13 11 10 8 7 6 5 3 3 2 2 3 3 4 4
3 3 2 2 2 2 2 3 3 3 2 2 2 2 2 4 4 4 4 4 6 6 7 7 6 5 6 14 15 14 13 12 10 9 8 7 7 6 5 3 2 2 1
3 3 3 2 2 2 3 3 3 2 2 1 2 2 3 3 3 5 4 5 6 5 7 8 8 7 6 5 11 14 13 12 11 11 10 9 8 8 7 6 5 4 3
5 4 5 4 3 2 3 2 2 3 3 1 1 2 2 2 4 4 5 6 5 5 6 6 8 7 7 6 6 11 12 12 11 10 10 9 8 7 7 6 5 4 4
7 6 6 6 5 4 4 3 2 0 2 2 1 1 2 2 1 3 4 5 6 6 6 5 6 7 6 5 7 10 11 11 11 10 9 9 8 8 7 6 5 5 5
8 8 7 7 6 6 6 5 5 4 2 2 2 2 2 2 2 0 3 3 4 4 4 5 4 4 4 4 4 9 9 9 9 9 9 9 8 8 7 7 6 6 5
7 9 8 8 7 7 7 7 7 8 7 7 5 4 2 2 2 1 2 2 3 3 3 3 3 3 3 3 7 8 6 7 7 7 8 8 8 8 8 7 7 7 7
7 8 7 8 8 8 8 8 9 9 9 9 7 5 5 5 3 2 2 2 2 3 2 2 2 3 3 3 4 5 2 4 5 6 7 7 8 8 9 9 9 9 9
8 9 9 9 10 9 9 9 8 9 9 9 9 7 6 6 5 4 2 1 2 3 3 2 1 3 3 3 6 6 2 3 5 6 6 7 7 8 8 9 9 9 9
9 10 10 11 10 10 10 9 8 9 8 8 9 8 6 6 5 5 4 3 3 1 2 3 1 3 3 3 4 5 5 4 4 5 6 7 7 8 8 9 9 9 9
9 10 11 11 10 10 9 8 9 9 9 9 8 8 7 6 5 5 4 4 4 4 3 3 2 4 5 5 2 5 5 4 7 4 4 6 7 7 8 8 8 8 9
10 11 10 10 10 10 9 9 10 10 10 9 8 9 8 8 6 5 5 4 4 4 3 3 2 3 3 5 5 6 5 6 1 3 2 5 7 7 7 7 7 8 8
10 10 10 10 9 9 9 9 9 9 9 9 8 8 8 6 6 6 5 5 5 4 3 3 3 3 3 4 5 6 5 5 5 4 2 4 4 5 5 5 6 6 6
10 9 9 9 9 9 8 8 8 9 8 8 8 7 7 6 6 6 5 5 4 3 3 3 3 2 2 3 5 5 5 4 6 1 5 6 3 3 2 3 4 4 5
10 9 9 9 8 8 8 8 8 8 8 7 7 6 7 7 7 5 4 4 4 3 2 2 3 2 2 3 4 5 5 5 5 5 4 3 4 7 5 2 1 3 4
9 8 8 8 8 7 7 6 6 7 6 6 6 6 7 6 7 6 6 6 5 5 4 4 3 3 5 5 6 6 6 6 4 4 6 4 2 2 2 6 4 4 5
8 8 8 8 8 8 8 9 5 6 5 5 5 5 5 3 2 3 2 4 6 6 7 6 5 6 6 6 6 6 6 7 5 4 6 5 4 3 3 4 6 4 5
8 8 8 9 10 9 7 7 7 3 5 5 4 4 4 5 3 4 2 7 6 6 5 6 7 7 7 7 8 8 7 7 6 6 7 6 4 3 2 6 5 1 3
7 7 8 8 9 8 6 5 7 0 4 4 4 4 4 4 7 7 6 4 3 2 1 4 5 6 6 7 7 7 7 8 6 2 4 6 5 5 3 3 8 4 2
7 7 7 7 8 8 6 6 10 2 3 4 3 4 5 5 7 8 6 5 4 3 3 5 6 7 8 8 8 7 7 6 6 3 4 6 5 6 3 1 4 8 6
6 6 7 7 7 7 6 7 11 1 3 2 3 4 6 6 6 8 7 6 6 6 6 3 4 7 7 6 8 6 7 7 7 5 5 6 5 6 4 3 3 1 2
Wind_Direction
194 184 191 194 206 188 186 212 216 198 222 224 240 246 260 269 280 288 154 135 185 249 252 244 239 234 231 230 233 235 236 234 232 229 228 228 228 228 227 228 226 226 225
191 191 191 192 207 206 212 211 209 210 224 234 240 255 269 275 287 297 307 124 132 114 303 290 273 251 239 233 226 226 233 235 232 228 223 219 221 225 226 228 228 228 227
191 196 200 196 204 206 202 212 211 216 212 207 209 233 277 318 336 340 333 344 56 86 63 38 16 333 273 245 227 221 224 223 225 231 233 228 225 225 224 226 227 228 230
200 204 207 203 200 207 206 205 215 208 212 216 203 30 34 47 30 22 20 30 22 34 61 57 46 41 35 32 16 220 221 215 214 224 233 236 237 236 235 233 233 234 236
208 213 214 203 201 201 205 219 196 207 196 200 154 102 64 52 48 47 51 49 50 46 48 65 59 53 49 50 51 54 51 53 70 146 223 244 244 243 240 237 236 237 238
202 206 208 200 202 196 195 199 179 171 183 179 144 85 69 72 66 60 59 63 57 55 53 52 58 61 59 54 52 51 50 52 55 53 51 38 24 357 285 249 238 240 244
175 178 193 171 189 181 176 178 178 168 177 176 170 140 103 83 73 63 55 58 62 60 61 56 52 49 62 61 55 54 53 53 52 53 54 51 49 41 30 3 291 265 262
128 147 148 140 131 137 137 155 185 192 177 220 237 202 185 156 91 59 60 64 61 61 62 59 57 52 48 54 60 53 49 48 49 48 47 46 40 32 26 23 14 9 356
84 97 104 102 100 125 125 131 178 193 179 156 314 274 244 200 133 95 65 62 59 58 60 60 59 54 53 53 56 56 51 46 44 43 45 43 35 29 18 9 3 343 331
76 80 88 95 97 91 96 98 81 126 179 167 136 32 19 12 197 142 110 79 63 54 53 52 54 53 47 51 57 55 49 45 42 40 36 34 34 31 22 17 10 1 357
74 76 78 81 84 82 81 79 79 70 76 88 101 104 90 72 29 135 130 114 88 63 57 57 55 52 46 45 43 53 49 44 38 33 29 23 17 14 11 12 13 9 357
79 76 79 81 81 81 80 79 81 79 72 68 64 58 61 61 63 69 109 129 116 91 68 60 54 48 43 41 57 46 43 36 27 20 14 7 1 355 351 349 345 340 334
87 80 83 84 83 82 82 82 80 78 77 76 71 68 61 54 47 53 91 121 118 120 113 84 54 38 31 17 53 12 71 40 8 357 351 348 345 342 341 340 337 333 330
89 90 86 84 84 84 85 83 82 81 78 77 72 66 66 58 49 47 43 55 158 146 128 63 35 38 11 359 37 302 11 68 355 341 336 334 332 331 330 329 324 323 323
92 91 89 87 85 84 83 84 83 83 82 80 79 74 67 65 53 48 43 14 345 339 99 96 27 41 352 0 5 329 343 39 320 321 326 327 326 324 321 320 316 315 315
90 91 89 89 89 89 90 91 89 84 82 75 69 65 58 61 56 52 47 42 22 4 37 56 33 25 3 332 32 327 325 261 240 264 316 323 321 317 314 314 312 312 311
90 90 91 90 89 87 84 84 86 86 83 80 76 73 65 49 47 49 48 45 39 25 30 53 38 48 357 337 344 329 317 310 20 158 316 319 320 320 318 317 318 318 317
88 89 89 89 90 88 87 88 88 86 84 80 75 72 68 66 57 45 40 45 46 25 11 25 9 25 5 343 337 314 323 329 319 133 219 281 309 324 329 329 328 327 327
88 86 88 89 88 88 87 87 88 86 82 77 73 70 65 58 52 51 34 37 34 35 14 350 9 16 342 356 321 317 326 321 310 120 209 217 225 269 301 327 333 335 335
89 87 87 88 90 90 92 92 91 88 85 79 72 66 56 47 41 34 39 35 18 357 6 339 358 359 352 355 325 340 341 341 334 340 341 298 216 215 210 198 18 1 346
91 91 93 93 91 84 69 73 95 94 90 87 80 70 62 48 29 4 4 6 357 348 352 354 359 4 13 359 356 348 342 331 341 356 332 326 328 325 178 167 117 35 359
92 93 92 91 83 71 44 25 20 95 88 82 78 76 97 98 98 210 275 313 329 339 351 343 360 6 5 359 352 335 342 337 341 8 330 331 347 349 353 61 69 32 355
96 93 91 89 85 72 47 31 3 42 83 70 61 46 44 57 348 11 214 220 227 229 266 317 340 349 347 357 338 332 345 334 329 339 329 328 347 347 355 98 120 66 343
97 95 91 90 89 74 44 20 332 11 85 78 60 42 29 29 29 350 340 0 11 54 294 289 328 328 337 335 322 309 308 300 291 270 322 320 342 343 350 109 151 178 240
101 101 95 93 92 86 46 6 324 125 95 89 69 47 14 29 35 335 324 357 7 29 183 231 271 284 293 286 289 301 318 323 337 357 359 332 343 336 343 24 156 190 208
107 103 96 90 85 79 56 14 335 351 88 103 110 116 81 24 2 337 336 358 4 4 348 330 246 238 247 236 229 271 317 331 339 351 13 339 344 339 348 8 9 32 214